Regional Weather Roundup
Issued by NWS

Home | Current Version | Previous Version | Text Only | Print | Product List | Glossary Off
Versions: 1 2 3 4 5 6 7 8 9 10 11 12 13 14 15 16 17 18 19 20 21 22 23 24 25 26 27 28 29 30 31 32 33 34 35 36 37 38 39 40 41 42 43 44 45 46 47 48 49 50

705
ASUS45 KBOU 260907
RWRCO

WEATHER ROUNDUP FOR COLORADO
NATIONAL WEATHER SERVICE DENVER/BOULDER CO
300 AM MDT SUN MAR 26 2017

NOTE: "FAIR" INDICATES FEW OR NO CLOUDS BELOW 12000 FEET WITH NO
SIGNIFICANT WEATHER AND/OR OBSTRUCTIONS TO VISIBILITY.

COZ001>005-013-030-031-261000-
...NORTHWEST COLORADO...

CITY           SKY/WX    TMP DP  RH WIND       PRES   REMARKS
CRAIG          CLOUDY    40  34  79 W8        29.92R
HAYDEN         CLOUDY    37  34  87 W12       29.90S
MEEKER         LGT RAIN  39  35  86 NW9       29.91S
MOUNT WERNER   NOT AVBL
STEAMBOAT SPGS CLOUDY    37  36  96 CALM      29.89F
WALDEN         NOT AVBL
$$

COZ006>008-011-261000-
...WEST CENTRAL VALLEYS...

CITY           SKY/WX    TMP DP  RH WIND       PRES   REMARKS
GRAND JUNCTION CLOUDY    48  36  63 NW7       29.87S
MONTROSE       LGT RAIN  40  38  93 SE10      29.92S
EAGLE          CLOUDY    37  32  82 CALM      29.91F
RIFLE          LGT RAIN  42  35  76 CALM      29.89S
DELTA          LGT RAIN  46  39  76 NE5       29.89S
NUCLA          DRIZZLE   39  37  93 E6        29.96F
$$

COZ017>023-064>068-261000-
...SOUTHWEST COLORADO...

CITY           SKY/WX    TMP DP  RH WIND       PRES   REMARKS
DURANGO        CLOUDY    36  33  89 SW10      29.90F
CORTEZ         CLOUDY    39  38  96 CALM      29.94S
PAGOSA SPRINGS LGT SNOW  35  35 100 SW5       29.91S WCI  31
TELLURIDE      NOT AVBL
WOLF CREEK PAS SNOW      21  21 100 SW10      29.97S VSB 1/2 WCI  10
$$

COZ009-010-012-014-032>034-037-058>063-261000-
...CENTRAL COLORADO...

CITY           SKY/WX    TMP DP  RH WIND       PRES   REMARKS
ASPEN          CLOUDY    36  34  92 CALM      29.88F
BUENA VISTA    CLOUDY    37  28  70 CALM      29.86F
COPPER MTN     SNOW      28  23  80 MISG      29.95F VSB 1/4
BERTHOUD PASS  CLOUDY    21  10  63 N12       29.95F WCI   9
COTTONWOOD PAS CLOUDY    34  30  86 SE5       29.89F WCI  30
GUNNISON       LGT RAIN  34  31  88 CALM      29.88F
KREMMLING      CLOUDY    41  37  87 CALM      29.91F
LEADVILLE      FAIR      28  25  88 N5        29.89F WCI  23
MONARCH PASS   SNOW      25  23  93 SW7       30.03F VSB 1/4 WCI  17
SALIDA         CLOUDY    42  32  69 S6        29.92F
SUNLIGHT       SNOW      27  27 100 CALM      30.00S VSB 1/4
WILKERSON PASS CLOUDY    28  25  86 N9        29.95F WCI  20
$$

COZ069>075-261000-
...SAN LUIS VALLEY/SANGRE DE CRISTO MOUNTAINS...

CITY           SKY/WX    TMP DP  RH WIND       PRES   REMARKS
ALAMOSA        MOCLDY    35  34  96 E5        29.85F WCI  31
LA VETA PASS   NOT AVBL
SAGUACHE       CLOUDY    34  32  93 NW9       29.86F WCI  26
$$

COZ035-036-038>040-261000-
...NORTHERN COLORADO FRONT RANGE...

CITY           SKY/WX    TMP DP  RH WIND       PRES   REMARKS
DENVER INTL AP MOCLDY    45  31  58 SW7       29.80S
DMNS CITY PARK   N/A     47  32  56 N13       29.79S
AURORA         CLOUDY    42  31  64 SE9       29.80F
FRONT RANGE AP FAIR      41  32  70 SE8       29.81F
ERIE MUNI ARPT MOCLDY    46  33  59 N5        29.80S
BOULDER MUN AP MOCLDY    46  32  57 CALM      29.80S
CENTENNIAL     MOCLDY    42  32  67 SE6       29.80F
BROOMFIELD     CLOUDY    46  34  61 N7        29.81S
FORT COLLINS   LGT RAIN  47  34  60 N9        29.80F
LONGMONT       CLOUDY    50  32  50 NE5       29.82S
$$

COZ041-046-047-076>085-087-088-261000-
...PIKES PEAK/PALMER DIVIDE AND SOUTHERN FOOTHILLS...

CITY           SKY/WX    TMP DP  RH WIND       PRES   REMARKS
COLO. SPRINGS  MOCLDY    39  26  59 NE10      29.80F
A. F. ACADEMY  MOCLDY    33  29  82 N6        29.80F WCI  28
SCHRIEVER AFB  MOCLDY    39  26  60 N13G23    29.80F
ELLICOTT         N/A    N/A N/A N/A E14       29.77F
FALCON         FAIR      36  24  62 N5        29.82F
FORT CARSON    FAIR      41  30  64 NW8       29.79F
LIMON          FAIR      34  30  85 N5        29.81F WCI  30
MONUMENT HILL  FAIR      34  25  69 S3        29.83F
TRINIDAD       FAIR      46  31  55 W7        29.76F
$$

COZ042>045-048>051-090-091-261000-
...NORTHEAST COLORADO...

CITY           SKY/WX    TMP DP  RH WIND       PRES   REMARKS
GREELEY ARPT   MOCLDY    44  32  62 N10       29.80F
AKRON          CLOUDY    42  28  57 S13       29.80F
BURLINGTON     FAIR      39  38  96 SE10      29.81F
WRAY           NOT AVBL
STERLING       MOCLDY    45  32  61 CALM      29.80F
HOLYOKE        FAIR      37  36  93 SE6       29.83F FOG
FORT MORGAN    FAIR      39  30  69 E5        29.80F
$$

COZ086-089-092>099-261000-
...SOUTHEAST COLORADO...

CITY           SKY/WX    TMP DP  RH WIND       PRES   REMARKS
PUEBLO         CLOUDY    44  29  55 NW9       29.75R
LA JUNTA       FAIR      44  26  49 E13       29.71F
LAMAR          FAIR      40  35  83 E8        29.75F
SPRINGFIELD      N/A     43  25  49 SE18      29.73F
$$




USA.gov is the U.S. government's official web portal to all federal, state and local government web resources and services.